Torna al catalogo

FENGYUN 1C DEB

LostPO
NORAD 37080·DEBRIS·🇨🇳 China

Lanciato May 10, 1999 da Taiyuan Satellite Launch Center

Loading…

Prossimi Passaggi (prossime 24 ore)

TLE

ObsoletoSource: Space-Track

Epoca: Oct 21, 2022, 13:45 UTC

1 37080U 99025EFQ 22294.57327019  .00004643  00000-0  25234-2 0  9991
2 37080  98.1635  62.0622 0167575 139.4318 221.9483 14.05794091716834

Traccia FENGYUN 1C DEB in tempo reale con AllMySat

Download on the App Store